CW2098 Weather Reports


time (UTC)temp
C
wind
direction
speed
KPH
gust
KPH
rain 1hr
cm
rain 24hr
cm
rain mn
cm
humidity
%
barometer
mb
20260508075314 25 212 1.6 8.0 0.00 0.00 0.00 89 993.3
20260508073839 25 215 1.6 8.0 0.00 0.00 0.00 89 993.4
20260508072839 25 205 1.6 4.8 0.00 0.00 0.00 88 993.1
20260508071839 25 304 3.2 8.0 0.00 0.00 0.00 88 993.8
20260508070839 25 262 1.6 9.7 0.00 0.00 0.00 88 993.6
20260508070324 25 0 1.6 6.4 0.00 0.00 0.00 88 993.2
20260508064839 25 0 3.2 8.0 0.00 0.00 0.00 88 993.1
20260508063836 24 228 1.6 6.4 0.00 0.00 0.00 87 992.5
20260508062836 25 216 3.2 8.0 0.00 0.00 0.00 87 992.6
20260508061835 25 220 3.2 6.4 0.00 0.00 0.00 86 992.9
20260508060835 25 250 3.2 8.0 0.00 0.00 0.00 86 993.1
20260508060319 25 273 3.2 8.0 0.00 0.00 0.00 85 992.8
20260508054834 25 202 3.2 9.7 0.00 0.00 0.00 85 993.2
20260508053834 25 338 3.2 6.4 0.00 0.00 0.00 84 993.3
20260508052834 25 251 1.6 6.4 0.00 0.00 0.00 84 993.1
20260508051831 25 225 1.6 6.4 0.00 0.00 0.00 84 992.9
20260508050832 25 214 1.6 8.0 0.00 0.00 0.00 83 992.8
20260508045831 25 211 3.2 9.7 0.00 0.00 0.00 83 993.1
20260508044826 25 223 3.2 9.7 0.00 0.00 0.00 82 993.3
20260508043826 25 226 3.2 9.7 0.00 0.00 0.00 81 993.2
20260508042827 25 241 3.2 11.3 0.00 0.00 0.00 81 994.1
20260508042319 26 346 3.2 12.9 0.00 0.00 0.00 80 993.9
20260508040826 26 139 3.2 9.7 0.00 0.00 0.00 79 993.6
20260508035827 26 207 3.2 11.3 0.00 0.00 0.00 78 993.5
20260508034828 26 230 1.6 6.4 0.00 0.00 0.00 76 993.2
20260508033825 26 202 3.2 11.3 0.00 0.00 0.00 76 993.9
20260508032822 26 27 3.2 8.0 0.00 0.00 0.00 75 993.9
20260508031822 26 35 3.2 8.0 0.00 0.00 0.00 74 993.4
20260508030822 26 185 3.2 12.9 0.00 0.00 0.00 73 993.6
20260508025822 26 268 3.2 9.7 0.00 0.00 0.00 72 993.7
20260508024822 27 256 3.2 11.3 0.00 0.00 0.00 71 993.6
20260508023822 27 217 3.2 12.9 0.00 0.00 0.00 70 993.6
20260508022820 27 299 3.2 9.7 0.00 0.00 0.00 70 993.5
20260508021817 27 237 3.2 9.7 0.00 0.00 0.00 70 993.5
20260508020816 27 246 3.2 8.0 0.00 0.00 0.00 68 993.5
20260508015816 27 209 3.2 6.4 0.00 0.00 0.00 67 993.6
20260508014816 27 320 3.2 8.0 0.00 0.00 0.00 66 993.7
20260508014312 27 166 3.2 11.3 0.00 0.00 0.00 64 994.0
20260508013256 28 269 3.2 8.0 0.00 0.00 0.00 64 994.0
20260508011817 28 273 1.6 6.4 0.00 0.00 0.00 63 993.6
20260508010827 28 246 1.6 8.0 0.00 0.00 0.00 63 992.8
20260508005812 28 202 1.6 4.8 0.00 0.00 0.00 61 993.1
20260508004811 28 235 3.2 8.0 0.00 0.00 0.00 59 993.2
20260508004258 28 323 1.6 4.8 0.00 0.00 0.00 57 993.5
20260508002812 29 240 1.6 6.4 0.00 0.00 0.00 56 993.7
20260508001815 29 203 3.2 9.7 0.00 0.00 0.00 55 993.7
20260508001335 29 267 3.2 8.0 0.00 0.00 0.00 55 994.0
20260508000250 30 188 1.6 8.0 0.00 0.00 0.00 54 994.3
20260507234811 30 263 3.2 9.7 0.00 0.00 0.00 52 994.7
20260507234250 30 249 3.2 11.3 0.00 0.00 0.00 52 994.7
20260507232811 30 270 3.2 6.4 0.00 0.00 0.00 52 994.8
20260507231811 30 296 3.2 9.7 0.00 0.00 0.00 48 995.0
20260507230811 30 189 4.8 11.3 0.00 0.00 0.00 47 995.0
20260507225811 30 227 4.8 11.3 0.00 0.00 0.00 47 994.6
20260507224811 31 218 6.4 14.5 0.00 0.00 0.00 46 994.9
20260507224249 31 222 6.4 17.7 0.00 0.00 0.00 48 995.2
20260507221804 31 19 4.8 14.5 0.00 0.00 0.00 50 996.9
20260507220815 31 228 4.8 12.9 0.00 0.00 0.00 50 997.3
20260507215801 31 270 4.8 12.9 0.00 0.00 0.00 50 999.5
20260507214802 30 207 6.4 17.7 0.00 0.00 0.00 51 999.9
20260507213803 30 229 4.8 12.9 0.00 0.00 0.00 52 997.5
20260507213236 30 32 4.8 12.9 0.00 0.00 0.00 52 997.3
20260507211802 29 316 6.4 14.5 0.00 0.00 0.00 56 996.6
20260507210814 29 199 8.0 16.1 0.00 0.00 0.00 57 994.9
20260507205801 29 206 6.4 16.1 0.00 0.00 0.00 58 995.3
20260507204801 29 283 4.8 16.1 0.00 0.00 0.00 56 995.7
20260507203801 28 237 6.4 12.9 0.00 0.00 0.00 56 995.3
20260507202801 28 226 6.4 14.5 0.00 0.00 0.00 56 995.3
20260507201801 28 1 4.8 12.9 0.00 0.00 0.00 58 995.2
20260507200757 28 225 4.8 12.9 0.00 0.00 0.00 60 995.3
20260507195757 29 224 4.8 14.5 0.00 0.00 0.00 59 996.0
20260507194757 29 209 6.4 16.1 0.00 0.00 0.00 58 996.0
20260507193754 29 321 6.4 19.3 0.00 0.00 0.00 58 996.5
20260507192755 30 217 6.4 12.9 0.00 0.00 0.00 57 997.7
20260507191808 29 298 6.4 14.5 0.00 0.00 0.00 58 999.1
20260507190755 29 204 6.4 14.5 0.00 0.00 0.00 58 1000.7
20260507185756 29 250 4.8 12.9 0.00 0.00 0.00 60 1001.5
20260507184752 29 250 6.4 14.5 0.00 0.00 0.00 59 999.5
20260507183753 30 214 4.8 12.9 0.00 0.00 0.00 58 1000.1
20260507182753 30 218 4.8 12.9 0.00 0.00 0.00 57 1003.3
20260507180806 30 219 4.8 17.7 0.00 0.00 0.00 56 1007.2
20260507175753 29 318 4.8 12.9 0.00 0.00 0.00 58 1005.5
20260507174236 29 262 3.2 9.7 0.00 0.00 0.00 58 998.3
20260507172752 30 15 3.2 8.0 0.00 0.00 0.00 55 999.5
20260507171752 30 216 4.8 14.5 0.00 0.00 0.00 47 1002.7
20260507170752 31 293 4.8 14.5 0.00 0.00 0.00 47 1005.6
20260507164752 31 236 4.8 14.5 0.00 0.00 0.00 46 1008.8
20260507163752 30 345 4.8 16.1 0.00 0.00 0.00 46 1007.4
20260507162752 30 232 4.8 12.9 0.00 0.00 0.00 47 1007.4
20260507161752 30 220 4.8 14.5 0.00 0.00 0.00 48 1006.5
20260507160752 30 309 6.4 12.9 0.00 0.00 0.00 51 1007.8
20260507155749 30 297 4.8 14.5 0.00 0.00 0.00 54 1007.8
20260507155232 30 270 4.8 12.9 0.00 0.00 0.00 54 1008.8
20260507154240 30 261 4.8 12.9 0.00 0.00 0.00 58 1007.9
20260507152748 29 352 4.8 12.9 0.00 0.00 0.00 60 1006.8
20260507151746 28 272 4.8 12.9 0.00 0.00 0.00 61 1006.9
20260507151228 28 247 3.2 11.3 0.00 0.00 0.00 63 1006.8
20260507145746 27 331 3.2 6.4 0.00 0.00 0.00 66 1002.9
20260507144746 27 170 4.8 11.3 0.00 0.00 0.00 67 1002.4
20260507143744 27 187 3.2 8.0 0.00 0.00 0.00 68 1003.6
20260507141742 26 215 3.2 9.7 0.00 0.00 0.00 71 1001.9
20260507140742 26 11 1.6 6.4 0.00 0.00 0.00 73 1003.5
20260507135742 26 154 1.6 6.4 0.00 0.00 0.00 73 1003.0
20260507134742 25 219 3.2 6.4 0.00 0.00 0.00 75 1001.9
20260507134234 25 25 3.2 6.4 0.00 0.00 0.00 75 1001.7
20260507132738 25 346 3.2 6.4 0.00 0.00 0.00 75 1000.2
20260507131735 24 53 1.6 4.8 0.00 0.00 0.00 77 1000.6
20260507130735 24 48 3.2 4.8 0.00 0.00 0.00 78 999.1
20260507125735 23 36 3.2 6.4 0.00 0.00 0.00 79 998.8
20260507124736 23 333 3.2 8.0 0.00 0.00 0.00 80 998.5
20260507124217 23 7 3.2 8.0 0.00 0.00 0.00 82 998.2
20260507122736 23 335 3.2 8.0 0.00 0.00 0.00 84 997.4
20260507121733 23 343 3.2 9.7 0.00 0.00 0.00 85 996.1
20260507120732 22 357 1.6 4.8 0.00 0.00 0.00 87 995.9
20260507120209 22 305 1.6 4.8 0.00 0.00 0.00 87 994.2
20260507114733 22 262 3.2 6.4 0.00 0.00 0.00 88 993.1
20260507113732 21 298 3.2 8.0 0.00 0.00 0.00 88 992.4
20260507113214 21 155 3.2 6.4 0.00 0.00 0.00 88 992.1
20260507111733 21 215 3.2 6.4 0.00 0.00 0.00 88 991.7
20260507110733 21 229 1.6 4.8 0.00 0.00 0.00 88 991.1
20260507105732 21 168 1.6 4.8 0.00 0.00 0.00 88 990.5
20260507104733 21 0 1.6 4.8 0.00 0.00 0.00 87 990.3
20260507103731 21 221 1.6 4.8 0.00 0.00 0.00 87 990.1
20260507102729 21 0 0.0 3.2 0.00 0.00 0.00 87 990.0
20260507101725 21 0 0.0 3.2 0.00 0.00 0.00 86 989.7
20260507100725 22 0 0.0 4.8 0.00 0.00 0.00 85 990.2
20260507095725 22 0 0.0 3.2 0.00 0.00 0.00 85 990.3
20260507094726 22 0 1.6 6.4 0.00 0.00 0.00 84 990.7
20260507093723 22 263 1.6 3.2 0.00 0.00 0.00 84 990.4
20260507092723 22 0 0.0 1.6 0.00 0.00 0.00 84 990.1
20260507091724 22 0 0.0 3.2 0.00 0.00 0.00 83 990.3
20260507090722 22 0 1.6 6.4 0.00 0.03 0.00 82 990.8
20260507090200 22 213 3.2 8.0 0.00 0.03 0.00 82 990.6
20260507084721 22 203 3.2 8.0 0.00 0.03 0.00 81 990.5
20260507083723 22 182 3.2 8.0 0.00 0.03 0.00 80 990.1
20260507082719 22 211 3.2 11.3 0.00 0.03 0.00 80 989.6
20260507081716 22 271 1.6 8.0 0.00 0.03 0.00 80 989.2
20260507080716 22 176 3.2 6.4 0.00 0.03 0.00 79 989.4
20260507075717 22 210 3.2 6.4 0.00 0.03 0.00 78 989.8